Voltar ao catálogo

DEB TRANSPORTER 12

AtivoSSO
NORAD 62657·DEBRIS·🇺🇸 United States
Este nome de satélite ainda não foi confirmado por fontes oficiais.

Lançado Jan 14, 2025 de Vandenberg Space Force Base

Loading…

Próximas Passagens (próximas 24 horas)

TLE

AtualizadoSource: Space-Track

Época: Sep 14, 2026, 15:44 UTC

1 62657U 25009BA  26257.65604187  .00007124  00000-0  24591-3 0  9999
2 62657  97.3894 338.8750 0001297  24.0767 336.0534 15.30267904 92605

Acompanhe DEB TRANSPORTER 12 em tempo real com AllMySat

Download on the App Store